Location: Newark
(58.8333°N, 23.5833°E)
Time: 17:06:09
(UTC+00:00)

METEOR M2 - Pass Details

Date: 10 December 2019
Orbit: 819 x 827 km, 98.5° (Epoch: 29 January)

Event Time Altitude Azimuth Distance (km) Brightness Sun altitude
Exits shadow 14:37:02 - 50° (NE) 2,533 ? -7.4°
Reaches altitude 10° 14:37:57 10° 41° (NE) 2,432 ? -7.5°
Maximum altitude 14:39:04 11° 29° (NNE) 2,386 ? -7.6°
Drops below altitude 10° 14:40:10 10° 16° (NNE) 2,433 ? -7.8°
Sets 14:44:43 0° 341° (NNW) 3,368 ? -8.3°
